Weather History for PHNL - April, 2014

Change the Weather History Date:

Monday, April 14, 2014

  Actual Average Record
Temperature  
Mean Temperature 77 °F 76 °F  
Max Temperature 82 °F 83 °F 88 °F (1990)
Min Temperature 72 °F 69 °F 63 °F (1975)
Degree Days  
Heating Degree Days 0 0  
Month to date heating degree days 0 0  
Since 1 July heating degree days 0 0  
Cooling Degree Days 12 11  
Month to date cooling degree days 161 154  
Year to date cooling degree days 989 929  
Growing Degree Days 27 (Base 50)    
Moisture  
Dew Point 58 °F    
Average Humidity 51    
Maximum Humidity 57    
Minimum Humidity 45    
Precipitation  
Precipitation 0.00 in 0.02 in 3.90 in (1972)
Month to date precipitation 0.16 0.40  
Year to date precipitation 6.45 6.72  
Snow  
Snow 0.00 in - - ()
Month to date snowfall 0.0  
Since 1 July snowfall 0.0  
Snow Depth 0.00 in    
Sea Level Pressure  
Sea Level Pressure 30.14 in    
Wind  
Wind Speed 17 mph (NE)    
Max Wind Speed 24 mph    
Max Gust Speed 30 mph    
Visibility 10 miles    
Events      
T = Trace of Precipitation, MM = Missing Value Source: NWS Daily Summary

Daily Weather History Graph

Daily Weather History Graph

Search for Another Location

Airport or City:

Trip Planner

Search our weather history database for the weather conditions in past years. The results will help you decide how hot, cold, wet, or windy it might be!

Date:

Astronomy

Apr. 14, 2014 Rise Set
Actual Time 6:13 AM HST 6:50 PM HST
Civil Twilight 5:50 AM HST 7:13 PM HST
Nautical Twilight 5:24 AM HST 7:40 PM HST
Astronomical Twilight 4:57 AM HST 8:07 PM HST
Moon 6:41 PM HST (4/14) 5:48 AM HST (4/14)
Length of Visible Light 13h 22m
Length of Day
12h 37m
Full, 100% of the Moon is Illuminated
Apr 14
Full
Apr 14
Full
Apr 21
Last Quarter
Apr 28
New
May 6
First Quarter

Hourly Weather History & Observations

Time (HST) Temp. Heat Index Dew Point Humidity Pressure Visibility Wind Dir Wind Speed Gust Speed Precip Events Conditions
12:53 AM 73.0 °F - 57.0 °F 57% 30.15 in 10.0 mi NE 19.6 mph 27.6 mph N/A   Mostly Cloudy
1:53 AM 73.0 °F - 54.0 °F 51% 30.12 in 10.0 mi ENE 18.4 mph 27.6 mph N/A   Mostly Cloudy
2:53 AM 73.0 °F - 55.0 °F 53% 30.11 in 10.0 mi NE 19.6 mph 25.3 mph N/A   Scattered Clouds
3:53 AM 73.0 °F - 57.0 °F 57% 30.11 in 10.0 mi ENE 17.3 mph 25.3 mph N/A   Scattered Clouds
4:53 AM 72.0 °F - 55.0 °F 55% 30.12 in 10.0 mi NE 11.5 mph 17.3 mph N/A   Scattered Clouds
5:53 AM 72.0 °F - 53.1 °F 51% 30.14 in 10.0 mi ENE 8.1 mph - N/A   Scattered Clouds
6:53 AM 73.0 °F - 55.0 °F 53% 30.15 in 10.0 mi NE 18.4 mph 26.5 mph N/A   Scattered Clouds
7:53 AM 75.0 °F - 57.0 °F 53% 30.16 in 10.0 mi ENE 17.3 mph 26.5 mph N/A   Scattered Clouds
8:53 AM 77.0 °F - 55.9 °F 48% 30.17 in 10.0 mi NE 13.8 mph 21.9 mph N/A   Scattered Clouds
9:53 AM 78.1 °F - 57.0 °F 48% 30.17 in 10.0 mi ENE 20.7 mph 27.6 mph N/A   Scattered Clouds
10:53 AM 80.1 °F 80.6 °F 57.9 °F 47% 30.17 in 10.0 mi NE 18.4 mph 23.0 mph N/A   Scattered Clouds
11:53 AM 81.0 °F 81.1 °F 57.9 °F 45% 30.17 in 10.0 mi NE 18.4 mph 25.3 mph N/A   Scattered Clouds
12:53 PM 80.1 °F 80.9 °F 60.1 °F 50% 30.16 in 10.0 mi NE 13.8 mph 24.2 mph N/A   Mostly Cloudy
1:53 PM 81.0 °F 81.1 °F 57.9 °F 45% 30.14 in 10.0 mi ENE 16.1 mph 24.2 mph N/A   Mostly Cloudy
2:53 PM 81.0 °F 81.7 °F 61.0 °F 50% 30.11 in 10.0 mi ENE 17.3 mph - N/A   Mostly Cloudy
3:53 PM 80.1 °F 80.7 °F 59.0 °F 48% 30.11 in 10.0 mi NNE 17.3 mph - N/A   Mostly Cloudy
4:53 PM 79.0 °F - 59.0 °F 50% 30.10 in 10.0 mi NNE 15.0 mph - N/A   Mostly Cloudy
5:53 PM 77.0 °F - 60.1 °F 56% 30.10 in 10.0 mi ENE 17.3 mph 24.2 mph N/A   Scattered Clouds
6:53 PM 75.0 °F - 61.0 °F 62% 30.11 in 10.0 mi NE 13.8 mph 23.0 mph N/A   Scattered Clouds
7:53 PM 73.9 °F - 59.0 °F 59% 30.13 in 10.0 mi NE 16.1 mph 24.2 mph N/A   Scattered Clouds
8:53 PM 73.9 °F - 60.1 °F 62% 30.14 in 10.0 mi NNW 4.6 mph - N/A   Scattered Clouds
9:53 PM 75.9 °F - 61.0 °F 60% 30.15 in 10.0 mi NE 12.7 mph 20.7 mph 0.00 in   Mostly Cloudy
10:53 PM 73.9 °F - 59.0 °F 59% 30.15 in 10.0 mi Variable 6.9 mph 18.4 mph N/A   Mostly Cloudy
11:53 PM 73.9 °F - 57.9 °F 57% 30.12 in 10.0 mi Variable 6.9 mph 20.7 mph N/A   Mostly Cloudy